RASAT

Last updated on Mon Sep 21 2026 00:02:45 GMT+0000 (Coordinated Universal Time)

1 37791U 11044D 26263.59878332 .00000455 00000+0 87347-4 0 9997 2 37791 98.0554 353.5327 0019210 248.7919 223.6629 14.68240778807182
UTC large
Height (km)
Speed (km/s)
/
Latitude / Longitude
Inclination (degrees)
Orbital Period (minutes)
Azimuth
Elevation
Range (km)
Doppler Factor

Next 0 passes for location: London (51.5072 / 0.1276)

No passes found over London.
RASAT